Location: Colle Santa Colomba
(42.0333°N, 12.5667°E)
Time: 22:13:51
(UTC+00:00)

Tiangong - Pass Details

Date: 25 October 2021
Orbit: 380 x 384 km, 41.5° (Epoch: 05 December)

Event Time Altitude Azimuth Distance (km) Brightness Sun altitude
Rises 17:23:55 0° 275° (W) 2,275 6.8 -13.8°
Reaches altitude 10° 17:26:00 10° 273° (W) 1,417 5.3 -14.2°
Maximum altitude 17:29:11 73° 189° (S) 409 1.1 -14.8°
Enters shadow 17:30:27 33° 111° (ESE) 674 1.8 -15.0°
